Location: Chacón
(10.5789°N, 66.9317°W)
Time: 22:59:38
(UTC+00:00)

Lacrosse 5 rocket - Pass Details

Date: 23 May 2024
Orbit: 445 x 572 km, 57.0° (Epoch: 25 June)

Event Time Altitude Azimuth Distance (km) Brightness Sun altitude
Rises 09:29:49 0° 301° (WNW) 2,555 4.4 -8.8°
Reaches altitude 10° 09:32:49 10° 276° (W) 1,644 3.2 -8.1°
Maximum altitude 09:34:49 14° 242° (WSW) 1,392 2.7 -7.6°
Drops below altitude 10° 09:36:47 10° 209° (SSW) 1,609 3.2 -7.2°
Sets 09:39:41 0° 183° (S) 2,461 4.4 -6.5°
